Total_Precipitation_Accumulation
0.27 0.21 0.28 0.33 0.28 0.29 0.39 0.38 0.29 0.10 0.06 0.07 0.08 0.09 0.08 0.06 0.05 0.05 0.06 0.05 0.05 0.07 0.10 0.15 0.21 0.27 0.37 0.41 0.37 0.35 0.39 0.47 0.54 0.57 0.58 0.61 0.63 0.69 0.76 0.80 0.82 0.84 0.83 0.79
0.29 0.17 0.21 0.23 0.18 0.20 0.22 0.19 0.15 0.08 0.05 0.04 0.05 0.06 0.06 0.06 0.06 0.06 0.06 0.06 0.06 0.06 0.07 0.11 0.20 0.28 0.37 0.43 0.44 0.45 0.52 0.57 0.62 0.66 0.67 0.67 0.67 0.72 0.81 0.86 0.90 0.92 0.91 0.84
0.43 0.24 0.37 0.33 0.14 0.13 0.14 0.11 0.11 0.10 0.06 0.05 0.05 0.06 0.07 0.08 0.09 0.09 0.07 0.07 0.07 0.08 0.08 0.12 0.26 0.35 0.36 0.40 0.44 0.51 0.58 0.60 0.59 0.61 0.67 0.66 0.62 0.65 0.73 0.78 0.75 0.75 0.78 0.76
0.57 0.46 0.67 0.27 0.09 0.07 0.09 0.10 0.11 0.11 0.08 0.07 0.06 0.06 0.07 0.09 0.09 0.09 0.09 0.10 0.11 0.11 0.11 0.14 0.22 0.27 0.27 0.32 0.38 0.43 0.48 0.54 0.57 0.57 0.63 0.67 0.63 0.55 0.53 0.58 0.63 0.60 0.55 0.54
0.74 0.57 0.33 0.12 0.10 0.12 0.14 0.14 0.15 0.13 0.09 0.07 0.06 0.05 0.07 0.09 0.08 0.08 0.08 0.09 0.10 0.11 0.12 0.14 0.17 0.19 0.22 0.26 0.30 0.36 0.39 0.42 0.46 0.48 0.51 0.56 0.60 0.54 0.47 0.45 0.48 0.53 0.50 0.46
0.83 0.61 0.28 0.16 0.12 0.12 0.14 0.21 0.18 0.13 0.11 0.09 0.11 0.23 0.15 0.10 0.07 0.07 0.06 0.05 0.06 0.07 0.08 0.10 0.13 0.16 0.19 0.23 0.23 0.26 0.28 0.29 0.30 0.32 0.36 0.37 0.38 0.40 0.39 0.40 0.40 0.41 0.45 0.45
0.71 0.52 0.18 0.10 0.10 0.14 0.28 0.34 0.23 0.17 0.14 0.16 0.23 0.30 0.18 0.09 0.07 0.06 0.05 0.04 0.04 0.05 0.08 0.11 0.13 0.15 0.16 0.18 0.18 0.20 0.20 0.17 0.18 0.21 0.23 0.25 0.27 0.29 0.32 0.34 0.36 0.39 0.40 0.42
0.53 0.57 0.24 0.12 0.15 0.27 0.36 0.23 0.18 0.17 0.15 0.17 0.14 0.08 0.06 0.05 0.05 0.05 0.04 0.04 0.05 0.06 0.08 0.10 0.11 0.11 0.13 0.15 0.14 0.15 0.17 0.15 0.13 0.16 0.19 0.22 0.23 0.26 0.29 0.32 0.35 0.36 0.40 0.43
0.37 0.27 0.13 0.15 0.20 0.20 0.17 0.15 0.14 0.16 0.15 0.17 0.14 0.08 0.05 0.04 0.04 0.04 0.04 0.04 0.06 0.08 0.09 0.08 0.07 0.07 0.09 0.11 0.12 0.12 0.14 0.15 0.14 0.16 0.19 0.22 0.25 0.26 0.29 0.32 0.36 0.39 0.40 0.42
0.19 0.11 0.11 0.12 0.14 0.13 0.11 0.11 0.10 0.11 0.15 0.16 0.14 0.09 0.06 0.04 0.03 0.03 0.04 0.05 0.08 0.08 0.07 0.06 0.05 0.05 0.06 0.07 0.10 0.13 0.14 0.16 0.16 0.17 0.21 0.23 0.25 0.27 0.30 0.36 0.45 0.50 0.48 0.47
0.12 0.06 0.07 0.09 0.10 0.10 0.09 0.07 0.07 0.06 0.07 0.11 0.10 0.08 0.06 0.05 0.04 0.05 0.06 0.07 0.07 0.07 0.06 0.04 0.04 0.04 0.05 0.05 0.08 0.12 0.15 0.17 0.19 0.20 0.22 0.24 0.25 0.27 0.31 0.34 0.48 0.64 0.57 0.57
0.10 0.06 0.06 0.05 0.05 0.07 0.08 0.07 0.09 0.09 0.06 0.05 0.06 0.07 0.06 0.06 0.06 0.07 0.07 0.07 0.06 0.05 0.04 0.03 0.03 0.04 0.05 0.05 0.07 0.11 0.15 0.19 0.22 0.23 0.24 0.25 0.26 0.28 0.31 0.32 0.36 0.39 0.43 0.52
0.04 0.03 0.03 0.03 0.03 0.04 0.06 0.08 0.09 0.09 0.07 0.06 0.05 0.05 0.06 0.06 0.07 0.07 0.07 0.07 0.06 0.04 0.03 0.03 0.03 0.04 0.06 0.05 0.07 0.11 0.17 0.21 0.24 0.25 0.26 0.28 0.29 0.33 0.34 0.32 0.33 0.32 0.34 0.41
0.02 0.02 0.03 0.03 0.03 0.03 0.05 0.07 0.08 0.08 0.07 0.05 0.05 0.05 0.06 0.06 0.06 0.07 0.07 0.07 0.05 0.04 0.03 0.04 0.05 0.04 0.06 0.07 0.08 0.11 0.17 0.24 0.28 0.27 0.28 0.31 0.32 0.34 0.38 0.40 0.40 0.35 0.34 0.39
0.02 0.03 0.03 0.03 0.03 0.04 0.04 0.05 0.07 0.06 0.05 0.04 0.03 0.04 0.06 0.07 0.08 0.08 0.08 0.06 0.04 0.04 0.04 0.04 0.06 0.05 0.06 0.07 0.10 0.13 0.17 0.24 0.30 0.32 0.31 0.33 0.34 0.36 0.38 0.38 0.38 0.37 0.38 0.45
0.04 0.03 0.03 0.03 0.03 0.04 0.04 0.05 0.07 0.06 0.05 0.04 0.04 0.05 0.06 0.07 0.08 0.08 0.06 0.04 0.04 0.03 0.04 0.06 0.07 0.07 0.07 0.09 0.12 0.14 0.18 0.27 0.35 0.37 0.36 0.37 0.38 0.39 0.42 0.42 0.40 0.40 0.44 0.48
0.05 0.04 0.03 0.02 0.03 0.04 0.05 0.05 0.07 0.07 0.05 0.04 0.05 0.06 0.07 0.06 0.06 0.05 0.05 0.05 0.04 0.03 0.04 0.06 0.09 0.09 0.10 0.12 0.15 0.17 0.20 0.25 0.34 0.37 0.38 0.40 0.44 0.45 0.46 0.49 0.48 0.45 0.43 0.45
0.06 0.06 0.05 0.05 0.05 0.06 0.06 0.06 0.06 0.07 0.06 0.05 0.06 0.07 0.08 0.07 0.07 0.06 0.06 0.05 0.05 0.04 0.05 0.06 0.09 0.11 0.12 0.15 0.18 0.19 0.23 0.28 0.34 0.39 0.42 0.44 0.49 0.49 0.49 0.50 0.48 0.46 0.42 0.44
0.05 0.05 0.05 0.06 0.07 0.08 0.07 0.05 0.05 0.06 0.06 0.06 0.07 0.08 0.09 0.09 0.09 0.08 0.07 0.06 0.06 0.06 0.06 0.08 0.12 0.12 0.14 0.17 0.24 0.26 0.31 0.36 0.39 0.39 0.40 0.47 0.49 0.46 0.48 0.49 0.49 0.48 0.46 0.46
0.06 0.06 0.06 0.08 0.08 0.09 0.08 0.07 0.06 0.06 0.07 0.08 0.09 0.10 0.11 0.11 0.11 0.11 0.10 0.10 0.09 0.10 0.08 0.10 0.12 0.13 0.16 0.22 0.31 0.36 0.38 0.40 0.42 0.43 0.44 0.47 0.50 0.49 0.49 0.51 0.53 0.52 0.50 0.49
0.08 0.08 0.09 0.10 0.09 0.08 0.09 0.09 0.09 0.09 0.09 0.10 0.11 0.13 0.14 0.14 0.14 0.14 0.13 0.13 0.12 0.13 0.12 0.13 0.14 0.19 0.25 0.33 0.38 0.37 0.38 0.42 0.46 0.50 0.51 0.52 0.53 0.52 0.51 0.54 0.57 0.58 0.58 0.56
0.11 0.11 0.12 0.12 0.11 0.09 0.10 0.10 0.11 0.12 0.13 0.13 0.14 0.16 0.17 0.18 0.17 0.16 0.16 0.15 0.15 0.19 0.19 0.17 0.19 0.28 0.33 0.37 0.33 0.35 0.38 0.43 0.49 0.52 0.55 0.55 0.58 0.59 0.58 0.58 0.62 0.62 0.63 0.63
0.14 0.15 0.15 0.15 0.14 0.13 0.11 0.11 0.12 0.14 0.16 0.17 0.18 0.19 0.20 0.21 0.21 0.21 0.21 0.19 0.19 0.23 0.23 0.22 0.27 0.32 0.35 0.33 0.31 0.35 0.40 0.45 0.51 0.57 0.59 0.60 0.62 0.64 0.65 0.65 0.66 0.67 0.68 0.67
0.17 0.16 0.16 0.15 0.15 0.14 0.13 0.13 0.14 0.15 0.16 0.16 0.18 0.19 0.21 0.22 0.21 0.21 0.23 0.24 0.26 0.27 0.26 0.29 0.33 0.34 0.35 0.34 0.36 0.41 0.48 0.55 0.61 0.65 0.67 0.68 0.67 0.67 0.68 0.71 0.73 0.70 0.69 0.68
0.21 0.20 0.17 0.16 0.16 0.17 0.17 0.16 0.15 0.15 0.15 0.16 0.17 0.18 0.21 0.22 0.24 0.25 0.26 0.28 0.31 0.32 0.32 0.34 0.36 0.38 0.37 0.40 0.45 0.52 0.58 0.65 0.74 0.79 0.77 0.75 0.72 0.71 0.71 0.73 0.75 0.73 0.71 0.67
0.25 0.24 0.22 0.20 0.21 0.20 0.20 0.19 0.19 0.18 0.18 0.19 0.20 0.21 0.23 0.25 0.27 0.28 0.29 0.32 0.34 0.35 0.35 0.37 0.40 0.43 0.46 0.50 0.55 0.60 0.63 0.65 0.70 0.74 0.74 0.75 0.74 0.74 0.74 0.75 0.74 0.72 0.70 0.67
0.26 0.25 0.23 0.21 0.22 0.23 0.24 0.24 0.25 0.25 0.25 0.26 0.28 0.28 0.29 0.30 0.32 0.32 0.32 0.35 0.37 0.38 0.38 0.41 0.44 0.47 0.52 0.58 0.62 0.65 0.67 0.68 0.71 0.78 0.80 0.79 0.77 0.78 0.78 0.77 0.76 0.73 0.71 0.69